owner,sensor,date,latitude,longitude,vertical_datum,direction_of_sea_water_velocity,sea_water_speed,upward_sea_water_velocity,qcFlag 
TABS,ioos:station:wmo:42046:1,2012-09-01T00:00:00Z,27.8903,-94.0367,2.0,293.659262,16.67120272,-99999.0,'11111222,11111222,99999999' 
TABS,ioos:station:wmo:42046:1,2012-09-01T00:30:00Z,27.8903,-94.0367,2.0,286.39364,17.39724691,-99999.0,'11111222,11111222,99999999' 
TABS,ioos:station:wmo:42046:1,2012-09-01T01:00:00Z,27.8903,-94.0367,2.0,292.6989297,20.16155748,-99999.0,'11111222,11111222,99999999' 
TABS,ioos:station:wmo:42046:1,2012-09-01T01:30:00Z,27.8903,-94.0367,2.0,292.2605689,21.56734801,-99999.0,'11111222,11111222,99999999' 
TABS,ioos:station:wmo:42046:1,2012-09-01T02:00:00Z,27.8903,-94.0367,2.0,292.184586,25.29226957,-99999.0,'11111222,11111222,99999999' 
TABS,ioos:station:wmo:42046:1,2012-09-01T02:30:00Z,27.8903,-94.0367,2.0,289.4506851,27.8387392,-99999.0,'11111222,11111222,99999999' 
TABS,ioos:station:wmo:42046:1,2012-09-01T03:00:00Z,27.8903,-94.0367,2.0,297.9872289,14.95942847,-99999.0,'11111222,11111222,99999999' 
TABS,ioos:station:wmo:42046:1,2012-09-01T03:30:00Z,27.8903,-94.0367,2.0,298.0695991,31.17705887,-99999.0,'11111222,11111222,99999999' 
TABS,ioos:station:wmo:42046:1,2012-09-01T04:00:00Z,27.8903,-94.0367,2.0,299.7395741,25.11827422,-99999.0,'11111222,11111222,99999999' 
TABS,ioos:station:wmo:42046:1,2012-09-01T04:30:00Z,27.8903,-94.0367,2.0,307.0326192,29.63811904,-99999.0,'11111222,11111222,99999999' 
TABS,ioos:station:wmo:42046:1,2012-09-01T05:00:00Z,27.8903,-94.0367,2.0,302.4549093,29.0702752,-99999.0,'11111222,11111222,99999999' 
TABS,ioos:station:wmo:42046:1,2012-09-01T05:30:00Z,27.8903,-94.0367,2.0,305.1276333,30.18796118,-99999.0,'11111222,11111222,99999999' 
TABS,ioos:station:wmo:42046:1,2012-09-01T06:00:00Z,27.8903,-94.0367,2.0,308.3450474,31.23834823,-99999.0,'11111222,11111222,99999999' 
TABS,ioos:station:wmo:42046:1,2012-09-01T06:30:00Z,27.8903,-94.0367,2.0,311.7570758,30.12149565,-99999.0,'11111222,11111222,99999999' 
TABS,ioos:station:wmo:42046:1,2012-09-01T07:00:00Z,27.8903,-94.0367,2.0,307.2464714,32.28469606,-99999.0,'11111222,11111222,99999999' 
TABS,ioos:station:wmo:42046:1,2012-09-01T07:30:00Z,27.8903,-94.0367,2.0,313.5808485,33.68276117,-99999.0,'11111222,11111222,99999999' 
TABS,ioos:station:wmo:42046:1,2012-09-01T08:00:00Z,27.8903,-94.0367,2.0,313.9665576,33.70619528,-99999.0,'11111222,11111222,99999999' 
TABS,ioos:station:wmo:42046:1,2012-09-01T08:30:00Z,27.8903,-94.0367,2.0,315.3462565,33.96295776,-99999.0,'11111222,11111222,99999999' 
TABS,ioos:station:wmo:42046:1,2012-09-01T09:00:00Z,27.8903,-94.0367,2.0,321.7078769,31.41968332,-99999.0,'11111222,11111222,99999999' 
TABS,ioos:station:wmo:42046:1,2012-09-01T09:30:00Z,27.8903,-94.0367,2.0,322.7920337,24.72243111,-99999.0,'11111222,11111222,99999999' 
TABS,ioos:station:wmo:42046:1,2012-09-01T10:00:00Z,27.8903,-94.0367,2.0,323.6343514,26.3770203,-99999.0,'11111222,11111222,99999999' 
TABS,ioos:station:wmo:42046:1,2012-09-01T10:30:00Z,27.8903,-94.0367,2.0,326.3379644,22.91189429,-99999.0,'11111222,11111222,99999999' 
TABS,ioos:station:wmo:42046:1,2012-09-01T11:00:00Z,27.8903,-94.0367,2.0,323.900772,23.35411099,-99999.0,'11111222,11111222,99999999' 
TABS,ioos:station:wmo:42046:1,2012-09-01T11:30:00Z,27.8903,-94.0367,2.0,321.1079804,16.54830807,-99999.0,'11111222,11111222,99999999' 
TABS,ioos:station:wmo:42046:1,2012-09-01T12:00:00Z,27.8903,-94.0367,2.0,334.4341212,21.8049765,-99999.0,'11111222,11111222,99999999' 
TABS,ioos:station:wmo:42046:1,2012-09-01T12:30:00Z,27.8903,-94.0367,2.0,340.9574478,15.20192422,-99999.0,'11111222,11111222,99999999' 
TABS,ioos:station:wmo:42046:1,2012-09-01T13:00:00Z,27.8903,-94.0367,2.0,332.8076205,15.51477038,-99999.0,'11111222,11111222,99999999' 
TABS,ioos:station:wmo:42046:1,2012-09-01T13:30:00Z,27.8903,-94.0367,2.0,337.3803984,13.78,-99999.0,'11111222,11111222,99999999' 
TABS,ioos:station:wmo:42046:1,2012-09-01T14:00:00Z,27.8903,-94.0367,2.0,342.2425995,11.77081985,-99999.0,'11111222,11111222,99999999' 
TABS,ioos:station:wmo:42046:1,2012-09-01T14:30:00Z,27.8903,-94.0367,2.0,333.6634897,11.22515033,-99999.0,'11111222,11111222,99999999' 
TABS,ioos:station:wmo:42046:1,2012-09-01T15:00:00Z,27.8903,-94.0367,2.0,330.735658,11.394231,-99999.0,'11111222,11111222,99999999' 
TABS,ioos:station:wmo:42046:1,2012-09-01T15:30:00Z,27.8903,-94.0367,2.0,338.0058616,9.372096884,-99999.0,'11133222,11111222,99999999' 
TABS,ioos:station:wmo:42046:1,2012-09-01T16:00:00Z,27.8903,-94.0367,2.0,338.0720451,5.034212947,-99999.0,'11133222,11111222,99999999' 
TABS,ioos:station:wmo:42046:1,2012-09-01T16:30:00Z,27.8903,-94.0367,2.0,330.66319,4.531103618,-99999.0,'11133222,11111222,99999999' 
TABS,ioos:station:wmo:42046:1,2012-09-01T17:00:00Z,27.8903,-94.0367,2.0,298.0815115,3.887647103,-99999.0,'11133222,11111222,99999999' 
TABS,ioos:station:wmo:42046:1,2012-09-01T17:30:00Z,27.8903,-94.0367,2.0,296.0469115,4.941912585,-99999.0,'11133222,11111222,99999999' 
TABS,ioos:station:wmo:42046:1,2012-09-01T18:00:00Z,27.8903,-94.0367,2.0,293.4020295,2.593318338,-99999.0,'11133222,11111222,99999999' 
TABS,ioos:station:wmo:42046:1,2012-09-01T18:30:00Z,27.8903,-94.0367,2.0,276.6952334,4.460414779,-99999.0,'11133222,11111222,99999999' 
TABS,ioos:station:wmo:42046:1,2012-09-01T19:00:00Z,27.8903,-94.0367,2.0,256.0188606,5.008363006,-99999.0,'11133222,11111222,99999999' 
TABS,ioos:station:wmo:42046:1,2012-09-01T19:30:00Z,27.8903,-94.0367,2.0,221.2230861,7.192753298,-99999.0,'11133222,11111222,99999999' 
TABS,ioos:station:wmo:42046:1,2012-09-01T20:00:00Z,27.8903,-94.0367,2.0,245.3263553,7.857353244,-99999.0,'11133222,11111222,99999999' 
TABS,ioos:station:wmo:42046:1,2012-09-01T20:30:00Z,27.8903,-94.0367,2.0,246.0790187,8.335994242,-99999.0,'11133222,11111222,99999999' 
TABS,ioos:station:wmo:42046:1,2012-09-01T21:00:00Z,27.8903,-94.0367,2.0,237.0074321,11.38606605,-99999.0,'11111222,11111222,99999999' 
TABS,ioos:station:wmo:42046:1,2012-09-01T21:30:00Z,27.8903,-94.0367,2.0,243.2625315,8.935367928,-99999.0,'11133222,11111222,99999999' 
TABS,ioos:station:wmo:42046:1,2012-09-01T22:00:00Z,27.8903,-94.0367,2.0,246.2844366,15.29125567,-99999.0,'11111222,11111222,99999999' 
TABS,ioos:station:wmo:42046:1,2012-09-01T22:30:00Z,27.8903,-94.0367,2.0,251.7970811,13.2532147,-99999.0,'11111222,11111222,99999999' 
TABS,ioos:station:wmo:42046:1,2012-09-01T23:00:00Z,27.8903,-94.0367,2.0,264.2666662,5.105536211,-99999.0,'11133222,11111222,99999999' 
TABS,ioos:station:wmo:42046:1,2012-09-01T23:30:00Z,27.8903,-94.0367,2.0,269.2253607,5.180472951,-99999.0,'11133222,11111222,99999999' 
TABS,ioos:station:wmo:42046:1,2012-09-02T00:00:00Z,27.8903,-94.0367,2.0,242.3866158,12.47040096,-99999.0,'11111222,11111222,99999999' 
TABS,ioos:station:wmo:42046:1,2012-09-02T00:30:00Z,27.8903,-94.0367,2.0,299.0404335,7.6634457,-99999.0,'11133222,11111222,99999999' 
TABS,ioos:station:wmo:42046:1,2012-09-02T01:00:00Z,27.8903,-94.0367,2.0,270.3487184,6.580121579,-99999.0,'11133222,11111222,99999999' 
TABS,ioos:station:wmo:42046:1,2012-09-02T01:30:00Z,27.8903,-94.0367,2.0,248.7819264,23.51396394,-99999.0,'11111222,11111222,99999999' 
TABS,ioos:station:wmo:42046:1,2012-09-02T02:00:00Z,27.8903,-94.0367,2.0,251.7427779,23.39780545,-99999.0,'11111222,11111222,99999999' 
TABS,ioos:station:wmo:42046:1,2012-09-02T02:30:00Z,27.8903,-94.0367,2.0,264.782915,23.31657779,-99999.0,'11111222,11111222,99999999' 
TABS,ioos:station:wmo:42046:1,2012-09-02T03:00:00Z,27.8903,-94.0367,2.0,260.3998796,25.36519269,-99999.0,'11111222,11111222,99999999' 
TABS,ioos:station:wmo:42046:1,2012-09-02T03:30:00Z,27.8903,-94.0367,2.0,262.5848121,25.2612371,-99999.0,'11111222,11111222,99999999' 
TABS,ioos:station:wmo:42046:1,2012-09-02T04:00:00Z,27.8903,-94.0367,2.0,271.4469732,25.74820576,-99999.0,'11111222,11111222,99999999' 
TABS,ioos:station:wmo:42046:1,2012-09-02T04:30:00Z,27.8903,-94.0367,2.0,273.5881837,28.12512222,-99999.0,'11111222,11111222,99999999' 
TABS,ioos:station:wmo:42046:1,2012-09-02T05:00:00Z,27.8903,-94.0367,2.0,276.4412754,25.1386714,-99999.0,'11111222,11111222,99999999' 
TABS,ioos:station:wmo:42046:1,2012-09-02T05:30:00Z,27.8903,-94.0367,2.0,281.9872962,25.23014071,-99999.0,'11111222,11111222,99999999' 
TABS,ioos:station:wmo:42046:1,2012-09-02T06:00:00Z,27.8903,-94.0367,2.0,289.2305123,23.46952279,-99999.0,'11111222,11111222,99999999' 
TABS,ioos:station:wmo:42046:1,2012-09-02T06:30:00Z,27.8903,-94.0367,2.0,288.2545431,28.06219165,-99999.0,'11111222,11111222,99999999' 
TABS,ioos:station:wmo:42046:1,2012-09-02T07:00:00Z,27.8903,-94.0367,2.0,294.1521471,28.88878675,-99999.0,'11111222,11111222,99999999' 
TABS,ioos:station:wmo:42046:1,2012-09-02T07:30:00Z,27.8903,-94.0367,2.0,299.95111,26.57957486,-99999.0,'11111222,11111222,99999999' 
TABS,ioos:station:wmo:42046:1,2012-09-02T08:00:00Z,27.8903,-94.0367,2.0,297.5932016,25.92914383,-99999.0,'11111222,11111222,99999999' 
TABS,ioos:station:wmo:42046:1,2012-09-02T08:30:00Z,27.8903,-94.0367,2.0,298.3651446,26.0585744,-99999.0,'11111222,11111222,99999999' 
TABS,ioos:station:wmo:42046:1,2012-09-02T09:00:00Z,27.8903,-94.0367,2.0,300.9219573,23.31352397,-99999.0,'11111222,11111222,99999999' 
TABS,ioos:station:wmo:42046:1,2012-09-02T09:30:00Z,27.8903,-94.0367,2.0,307.8794715,24.185752,-99999.0,'11111222,11111222,99999999' 
TABS,ioos:station:wmo:42046:1,2012-09-02T10:00:00Z,27.8903,-94.0367,2.0,311.960057,24.79778216,-99999.0,'11111222,11111222,99999999' 
TABS,ioos:station:wmo:42046:1,2012-09-02T10:30:00Z,27.8903,-94.0367,2.0,316.5818628,22.28942574,-99999.0,'11111222,11111222,99999999' 
TABS,ioos:station:wmo:42046:1,2012-09-02T11:00:00Z,27.8903,-94.0367,2.0,337.4461506,20.77924445,-99999.0,'11111222,11111222,99999999' 
TABS,ioos:station:wmo:42046:1,2012-09-02T11:30:00Z,27.8903,-94.0367,2.0,343.5758138,23.16529516,-99999.0,'11111222,11111222,99999999' 
TABS,ioos:station:wmo:42046:1,2012-09-02T12:00:00Z,27.8903,-94.0367,2.0,342.8293062,24.08344244,-99999.0,'11111222,11111222,99999999' 
TABS,ioos:station:wmo:42046:1,2012-09-02T12:30:00Z,27.8903,-94.0367,2.0,344.8723886,23.29734963,-99999.0,'11111222,11111222,99999999' 
TABS,ioos:station:wmo:42046:1,2012-09-02T13:00:00Z,27.8903,-94.0367,2.0,359.4277135,26.02129897,-99999.0,'11111222,11144222,99999999' 
TABS,ioos:station:wmo:42046:1,2012-09-02T13:30:00Z,27.8903,-94.0367,2.0,5.539292046,30.25125617,-99999.0,'11111222,11111222,99999999' 
TABS,ioos:station:wmo:42046:1,2012-09-02T14:00:00Z,27.8903,-94.0367,2.0,7.666598768,27.43522735,-99999.0,'11111222,11111222,99999999' 
TABS,ioos:station:wmo:42046:1,2012-09-02T14:30:00Z,27.8903,-94.0367,2.0,10.32046288,26.5698551,-99999.0,'11111222,11111222,99999999' 
TABS,ioos:station:wmo:42046:1,2012-09-02T15:00:00Z,27.8903,-94.0367,2.0,14.01225847,23.00450608,-99999.0,'11111222,11111222,99999999' 
TABS,ioos:station:wmo:42046:1,2012-09-02T15:30:00Z,27.8903,-94.0367,2.0,10.1416546,20.38855071,-99999.0,'11111222,11111222,99999999' 
TABS,ioos:station:wmo:42046:1,2012-09-02T16:00:00Z,27.8903,-94.0367,2.0,14.44851065,19.55857868,-99999.0,'11111222,11111222,99999999' 
TABS,ioos:station:wmo:42046:1,2012-09-02T16:30:00Z,27.8903,-94.0367,2.0,12.35646628,17.29052052,-99999.0,'11111222,11111222,99999999' 
TABS,ioos:station:wmo:42046:1,2012-09-02T17:00:00Z,27.8903,-94.0367,2.0,15.91222719,16.52310504,-99999.0,'11111222,11111222,99999999' 
TABS,ioos:station:wmo:42046:1,2012-09-02T17:30:00Z,27.8903,-94.0367,2.0,20.36595565,15.86150371,-99999.0,'11111222,11111222,99999999' 
TABS,ioos:station:wmo:42046:1,2012-09-02T18:00:00Z,27.8903,-94.0367,2.0,33.04354895,18.43108787,-99999.0,'11111222,11111222,99999999' 
TABS,ioos:station:wmo:42046:1,2012-09-02T18:30:00Z,27.8903,-94.0367,2.0,25.5558325,15.73988882,-99999.0,'11111222,11111222,99999999' 
TABS,ioos:station:wmo:42046:1,2012-09-02T19:00:00Z,27.8903,-94.0367,2.0,36.30640526,21.14502306,-99999.0,'11111222,11111222,99999999' 
TABS,ioos:station:wmo:42046:1,2012-09-02T19:30:00Z,27.8903,-94.0367,2.0,50.41498937,19.63204014,-99999.0,'11111222,11111222,99999999' 
TABS,ioos:station:wmo:42046:1,2012-09-02T20:00:00Z,27.8903,-94.0367,2.0,62.30059197,12.19790556,-99999.0,'11111222,11111222,99999999' 
TABS,ioos:station:wmo:42046:1,2012-09-02T20:30:00Z,27.8903,-94.0367,2.0,59.35351525,13.32049924,-99999.0,'11111222,11111222,99999999' 
TABS,ioos:station:wmo:42046:1,2012-09-02T21:00:00Z,27.8903,-94.0367,2.0,53.91219264,8.352777981,-99999.0,'11133222,11111222,99999999' 
TABS,ioos:station:wmo:42046:1,2012-09-02T21:30:00Z,27.8903,-94.0367,2.0,81.12549441,5.769064049,-99999.0,'11133222,11111222,99999999' 
TABS,ioos:station:wmo:42046:1,2012-09-02T22:00:00Z,27.8903,-94.0367,2.0,110.4691418,4.632493929,-99999.0,'11133222,11111222,99999999' 
TABS,ioos:station:wmo:42046:1,2012-09-02T22:30:00Z,27.8903,-94.0367,2.0,102.684238,3.597804886,-99999.0,'11133222,11111222,99999999' 
TABS,ioos:station:wmo:42046:1,2012-09-02T23:00:00Z,27.8903,-94.0367,2.0,124.483873,1.201041215,-99999.0,'11133222,11111222,99999999' 
TABS,ioos:station:wmo:42046:1,2012-09-02T23:30:00Z,27.8903,-94.0367,2.0,185.235367,5.04103164,-99999.0,'11133222,11111222,99999999' 
TABS,ioos:station:wmo:42046:1,2012-09-03T00:00:00Z,27.8903,-94.0367,2.0,232.5400329,6.412339667,-99999.0,'11133222,11111222,99999999' 
TABS,ioos:station:wmo:42046:1,2012-09-03T00:30:00Z,27.8903,-94.0367,2.0,232.4352265,8.414618233,-99999.0,'11133222,11111222,99999999' 
TABS,ioos:station:wmo:42046:1,2012-09-03T01:00:00Z,27.8903,-94.0367,2.0,231.4723247,8.7816741,-99999.0,'11133222,11111222,99999999' 
TABS,ioos:station:wmo:42046:1,2012-09-03T01:30:00Z,27.8903,-94.0367,2.0,235.2463188,14.94619684,-99999.0,'11111222,11111222,99999999' 
TABS,ioos:station:wmo:42046:1,2012-09-03T02:00:00Z,27.8903,-94.0367,2.0,256.6932098,12.94760209,-99999.0,'11111222,11111222,99999999' 
TABS,ioos:station:wmo:42046:1,2012-09-03T02:30:00Z,27.8903,-94.0367,2.0,254.2614746,15.18943054,-99999.0,'11111222,11111222,99999999' 
TABS,ioos:station:wmo:42046:1,2012-09-03T03:00:00Z,27.8903,-94.0367,2.0,258.8997743,14.44012812,-99999.0,'11111222,11111222,99999999' 
TABS,ioos:station:wmo:42046:1,2012-09-03T03:30:00Z,27.8903,-94.0367,2.0,263.4942855,15.71115846,-99999.0,'11111222,11111222,99999999' 
TABS,ioos:station:wmo:42046:1,2012-09-03T04:00:00Z,27.8903,-94.0367,2.0,272.508598,17.36663756,-99999.0,'11111222,11111222,99999999' 
TABS,ioos:station:wmo:42046:1,2012-09-03T04:30:00Z,27.8903,-94.0367,2.0,276.4482558,17.63152858,-99999.0,'11111222,11111222,99999999' 
TABS,ioos:station:wmo:42046:1,2012-09-03T05:00:00Z,27.8903,-94.0367,2.0,284.522863,18.86267478,-99999.0,'11111222,11111222,99999999' 
TABS,ioos:station:wmo:42046:1,2012-09-03T05:30:00Z,27.8903,-94.0367,2.0,288.5889824,20.04575017,-99999.0,'11111222,11111222,99999999' 
TABS,ioos:station:wmo:42046:1,2012-09-03T06:00:00Z,27.8903,-94.0367,2.0,290.8150546,23.07606769,-99999.0,'11111222,11111222,99999999' 
TABS,ioos:station:wmo:42046:1,2012-09-03T06:30:00Z,27.8903,-94.0367,2.0,296.7431884,20.17837456,-99999.0,'11111222,11111222,99999999' 
TABS,ioos:station:wmo:42046:1,2012-09-03T07:00:00Z,27.8903,-94.0367,2.0,306.5681992,20.10827939,-99999.0,'11111222,11111222,99999999' 
TABS,ioos:station:wmo:42046:1,2012-09-03T07:30:00Z,27.8903,-94.0367,2.0,312.4122432,22.86286946,-99999.0,'11111222,11111222,99999999' 
TABS,ioos:station:wmo:42046:1,2012-09-03T08:00:00Z,27.8903,-94.0367,2.0,316.1675844,17.70255631,-99999.0,'11111222,11111222,99999999' 
TABS,ioos:station:wmo:42046:1,2012-09-03T08:30:00Z,27.8903,-94.0367,2.0,316.4086018,19.56448313,-99999.0,'11111222,11111222,99999999' 
TABS,ioos:station:wmo:42046:1,2012-09-03T09:00:00Z,27.8903,-94.0367,2.0,331.6798316,19.70900809,-99999.0,'11111222,11111222,99999999' 
TABS,ioos:station:wmo:42046:1,2012-09-03T09:30:00Z,27.8903,-94.0367,2.0,337.7296937,16.78185032,-99999.0,'11111222,11111222,99999999' 
TABS,ioos:station:wmo:42046:1,2012-09-03T10:00:00Z,27.8903,-94.0367,2.0,342.2789303,20.5658868,-99999.0,'11111222,11111222,99999999' 
TABS,ioos:station:wmo:42046:1,2012-09-03T10:30:00Z,27.8903,-94.0367,2.0,338.3088142,20.31882132,-99999.0,'11111222,11111222,99999999' 
TABS,ioos:station:wmo:42046:1,2012-09-03T11:00:00Z,27.8903,-94.0367,2.0,350.6126296,20.1701289,-99999.0,'11111222,11111222,99999999' 
TABS,ioos:station:wmo:42046:1,2012-09-03T11:30:00Z,27.8903,-94.0367,2.0,353.2248267,21.95331638,-99999.0,'11111222,11111222,99999999' 
TABS,ioos:station:wmo:42046:1,2012-09-03T12:00:00Z,27.8903,-94.0367,2.0,356.2965079,26.93625809,-99999.0,'11111222,11111222,99999999' 
TABS,ioos:station:wmo:42046:1,2012-09-03T12:30:00Z,27.8903,-94.0367,2.0,5.093020137,23.9947265,-99999.0,'11111222,11111222,99999999' 
TABS,ioos:station:wmo:42046:1,2012-09-03T13:00:00Z,27.8903,-94.0367,2.0,9.54835951,21.94400146,-99999.0,'11111222,11111222,99999999' 
TABS,ioos:station:wmo:42046:1,2012-09-03T13:30:00Z,27.8903,-94.0367,2.0,11.07568027,25.40313563,-99999.0,'11111222,11111222,99999999' 
TABS,ioos:station:wmo:42046:1,2012-09-03T14:00:00Z,27.8903,-94.0367,2.0,18.72869971,23.451759,-99999.0,'11111222,11111222,99999999' 
TABS,ioos:station:wmo:42046:1,2012-09-03T14:30:00Z,27.8903,-94.0367,2.0,20.37418329,25.42029504,-99999.0,'11111222,11111222,99999999' 
TABS,ioos:station:wmo:42046:1,2012-09-03T15:00:00Z,27.8903,-94.0367,2.0,22.91456615,27.5326715,-99999.0,'11111222,11111222,99999999' 
TABS,ioos:station:wmo:42046:1,2012-09-03T15:30:00Z,27.8903,-94.0367,2.0,26.28177925,28.93060145,-99999.0,'11111222,11111222,99999999' 
TABS,ioos:station:wmo:42046:1,2012-09-03T16:00:00Z,27.8903,-94.0367,2.0,31.9806874,31.79569939,-99999.0,'11111222,11111222,99999999' 
TABS,ioos:station:wmo:42046:1,2012-09-03T16:30:00Z,27.8903,-94.0367,2.0,35.66280777,33.0353326,-99999.0,'11111222,11111222,99999999' 
TABS,ioos:station:wmo:42046:1,2012-09-03T17:00:00Z,27.8903,-94.0367,2.0,39.42020726,38.25188361,-99999.0,'11111222,11111222,99999999' 
TABS,ioos:station:wmo:42046:1,2012-09-03T17:30:00Z,27.8903,-94.0367,2.0,38.35942943,36.62637438,-99999.0,'11111222,11111222,99999999' 
TABS,ioos:station:wmo:42046:1,2012-09-03T18:00:00Z,27.8903,-94.0367,2.0,46.09186602,35.2556733,-99999.0,'11111222,11111222,99999999' 
TABS,ioos:station:wmo:42046:1,2012-09-03T18:30:00Z,27.8903,-94.0367,2.0,49.27299653,38.5312808,-99999.0,'11111222,11111222,99999999' 
TABS,ioos:station:wmo:42046:1,2012-09-03T19:00:00Z,27.8903,-94.0367,2.0,51.28360017,36.30885567,-99999.0,'11111222,11111222,99999999' 
TABS,ioos:station:wmo:42046:1,2012-09-03T19:30:00Z,27.8903,-94.0367,2.0,52.4239985,32.61647743,-99999.0,'11111222,11111222,99999999' 
TABS,ioos:station:wmo:42046:1,2012-09-03T20:00:00Z,27.8903,-94.0367,2.0,56.30421503,27.41605734,-99999.0,'11111222,11111222,99999999' 
TABS,ioos:station:wmo:42046:1,2012-09-03T20:30:00Z,27.8903,-94.0367,2.0,56.29789929,26.24009337,-99999.0,'11111222,11111222,99999999' 
TABS,ioos:station:wmo:42046:1,2012-09-03T21:00:00Z,27.8903,-94.0367,2.0,55.52725751,23.14425199,-99999.0,'11111222,11111222,99999999' 
TABS,ioos:station:wmo:42046:1,2012-09-03T21:30:00Z,27.8903,-94.0367,2.0,62.31147146,20.98282393,-99999.0,'11111222,11111222,99999999' 
TABS,ioos:station:wmo:42046:1,2012-09-03T22:00:00Z,27.8903,-94.0367,2.0,68.43969923,18.09617087,-99999.0,'11111222,11111222,99999999' 
TABS,ioos:station:wmo:42046:1,2012-09-03T22:30:00Z,27.8903,-94.0367,2.0,70.9318048,14.01923322,-99999.0,'11111222,11111222,99999999' 
TABS,ioos:station:wmo:42046:1,2012-09-03T23:00:00Z,27.8903,-94.0367,2.0,78.12667581,11.56748892,-99999.0,'11111222,11111222,99999999' 
TABS,ioos:station:wmo:42046:1,2012-09-03T23:30:00Z,27.8903,-94.0367,2.0,88.91907834,6.891226306,-99999.0,'11133222,11111222,99999999' 
TABS,ioos:station:wmo:42046:1,2012-09-04T00:00:00Z,27.8903,-94.0367,2.0,101.6867465,7.454535532,-99999.0,'11133222,11111222,99999999' 
TABS,ioos:station:wmo:42046:1,2012-09-04T00:30:00Z,27.8903,-94.0367,2.0,119.2214899,7.333239393,-99999.0,'11133222,11111222,99999999' 
TABS,ioos:station:wmo:42046:1,2012-09-04T01:00:00Z,27.8903,-94.0367,2.0,116.0417557,5.876631688,-99999.0,'11133222,11111222,99999999' 
TABS,ioos:station:wmo:42046:1,2012-09-04T01:30:00Z,27.8903,-94.0367,2.0,107.8960911,3.026433545,-99999.0,'11133222,11111222,99999999' 
TABS,ioos:station:wmo:42046:1,2012-09-04T02:00:00Z,27.8903,-94.0367,2.0,326.6896575,0.837615664,-99999.0,'11133222,11111222,99999999' 
TABS,ioos:station:wmo:42046:1,2012-09-04T02:30:00Z,27.8903,-94.0367,2.0,176.4891193,1.633064604,-99999.0,'11133222,11111222,99999999' 
TABS,ioos:station:wmo:42046:1,2012-09-04T03:00:00Z,27.8903,-94.0367,2.0,279.0455777,4.516159873,-99999.0,'11133222,11111222,99999999' 
TABS,ioos:station:wmo:42046:1,2012-09-04T03:30:00Z,27.8903,-94.0367,2.0,281.9912279,6.931233656,-99999.0,'11133222,11111222,99999999' 
TABS,ioos:station:wmo:42046:1,2012-09-04T04:00:00Z,27.8903,-94.0367,2.0,290.4698819,7.749303194,-99999.0,'11133222,11111222,99999999' 
TABS,ioos:station:wmo:42046:1,2012-09-04T04:30:00Z,27.8903,-94.0367,2.0,294.6636659,10.37659867,-99999.0,'11111222,11111222,99999999' 
TABS,ioos:station:wmo:42046:1,2012-09-04T05:00:00Z,27.8903,-94.0367,2.0,293.8206083,11.86029511,-99999.0,'11111222,11111222,99999999' 
TABS,ioos:station:wmo:42046:1,2012-09-04T05:30:00Z,27.8903,-94.0367,2.0,312.9673482,13.95292801,-99999.0,'11111222,11111222,99999999' 
TABS,ioos:station:wmo:42046:1,2012-09-04T06:00:00Z,27.8903,-94.0367,2.0,314.2112901,18.48552407,-99999.0,'11111222,11111222,99999999' 
TABS,ioos:station:wmo:42046:1,2012-09-04T06:30:00Z,27.8903,-94.0367,2.0,317.943938,22.16876406,-99999.0,'11111222,11111222,99999999' 
TABS,ioos:station:wmo:42046:1,2012-09-04T07:00:00Z,27.8903,-94.0367,2.0,328.1252958,21.89113291,-99999.0,'11111222,11111222,99999999' 
TABS,ioos:station:wmo:42046:1,2012-09-04T07:30:00Z,27.8903,-94.0367,2.0,331.8663273,23.03118972,-99999.0,'11111222,11111222,99999999' 
TABS,ioos:station:wmo:42046:1,2012-09-04T08:00:00Z,27.8903,-94.0367,2.0,343.8192178,21.71002073,-99999.0,'11111222,11111222,99999999' 
TABS,ioos:station:wmo:42046:1,2012-09-04T08:30:00Z,27.8903,-94.0367,2.0,342.9612102,27.77936644,-99999.0,'11111222,11111222,99999999' 
TABS,ioos:station:wmo:42046:1,2012-09-04T09:00:00Z,27.8903,-94.0367,2.0,351.2761978,27.55884613,-99999.0,'11111222,11111222,99999999' 
TABS,ioos:station:wmo:42046:1,2012-09-04T09:30:00Z,27.8903,-94.0367,2.0,353.0400057,26.73703798,-99999.0,'11111222,11111222,99999999' 
TABS,ioos:station:wmo:42046:1,2012-09-04T10:00:00Z,27.8903,-94.0367,2.0,357.5490203,25.95374732,-99999.0,'11111222,11111222,99999999' 
TABS,ioos:station:wmo:42046:1,2012-09-04T10:30:00Z,27.8903,-94.0367,2.0,359.6844264,29.03044092,-99999.0,'11111222,11144222,99999999' 
TABS,ioos:station:wmo:42046:1,2012-09-04T11:00:00Z,27.8903,-94.0367,2.0,359.7714865,30.06023952,-99999.0,'11111222,11144222,99999999' 
TABS,ioos:station:wmo:42046:1,2012-09-04T11:30:00Z,27.8903,-94.0367,2.0,7.838869603,28.08240196,-99999.0,'11111222,11111222,99999999' 
TABS,ioos:station:wmo:42046:1,2012-09-04T12:00:00Z,27.8903,-94.0367,2.0,15.61822695,31.01514791,-99999.0,'11111222,11111222,99999999' 
TABS,ioos:station:wmo:42046:1,2012-09-04T12:30:00Z,27.8903,-94.0367,2.0,18.07604123,32.29381365,-99999.0,'11111222,11111222,99999999' 
TABS,ioos:station:wmo:42046:1,2012-09-04T13:00:00Z,27.8903,-94.0367,2.0,18.08787409,31.30712379,-99999.0,'11111222,11111222,99999999' 
TABS,ioos:station:wmo:42046:1,2012-09-04T13:30:00Z,27.8903,-94.0367,2.0,24.48634147,31.43744583,-99999.0,'11111222,11111222,99999999' 
TABS,ioos:station:wmo:42046:1,2012-09-04T14:00:00Z,27.8903,-94.0367,2.0,28.25966368,33.87782756,-99999.0,'11111222,11111222,99999999' 
TABS,ioos:station:wmo:42046:1,2012-09-04T14:30:00Z,27.8903,-94.0367,2.0,34.25596739,32.58190449,-99999.0,'11111222,11111222,99999999' 
TABS,ioos:station:wmo:42046:1,2012-09-04T15:00:00Z,27.8903,-94.0367,2.0,38.89435659,33.97120104,-99999.0,'11111222,11111222,99999999' 
TABS,ioos:station:wmo:42046:1,2012-09-04T15:30:00Z,27.8903,-94.0367,2.0,40.07201211,34.98261425,-99999.0,'11111222,11111222,99999999' 
TABS,ioos:station:wmo:42046:1,2012-09-04T16:00:00Z,27.8903,-94.0367,2.0,45.51290854,34.76276169,-99999.0,'11111222,11111222,99999999' 